This is the latest recevied weather packets stored in our database for station/object KM4CBK. If no packets are shown the sender has not sent any weather packets the latest 10 day(s).
| Time | Temp. | Humidity | Pressure | Rain* | Wind** | Luminosity | Snow |
|---|---|---|---|---|---|---|---|
| 1777470370 | 17.78° C | 99% | 1015.1 hPa | 3.56 mm | - | 23 W/m² | - |
| 1777470067 | 17.78° C | 99% | 1015.2 hPa | 1.78 mm | - | 18 W/m² | - |
| 1777469763 | 17.78° C | 99% | 1015.1 hPa | 0.51 mm | - | 18 W/m² | - |
| 1777469459 | 17.78° C | 99% | 1015.3 hPa | 0.51 mm | - | 12 W/m² | - |
| 1777469154 | 17.78° C | 99% | 1015.5 hPa | 0.51 mm | - | 9 W/m² | - |
| 1777468854 | 17.78° C | 99% | 1016 hPa | 0 mm | - | 10 W/m² | - |
| 1777468551 | 17.78° C | 99% | 1015.9 hPa | 0 mm | - | 11 W/m² | - |
| 1777468247 | 17.78° C | 99% | 1015.5 hPa | 0 mm | - | 23 W/m² | - |
| 1777467944 | 17.78° C | 99% | 1015.1 hPa | 0 mm | - | 23 W/m² | - |
| 1777467639 | 17.78° C | 99% | 1015 hPa | 0 mm | - | 35 W/m² | - |
| 1777467335 | 17.78° C | 99% | 1014.6 hPa | 0 mm | - | 42 W/m² | - |
| 1777467031 | 17.78° C | 99% | 1014.7 hPa | 0 mm | - | 27 W/m² | - |
| 1777466729 | 17.78° C | 99% | 1014.7 hPa | 1.27 mm | - | 18 W/m² | - |
| 1777466426 | 17.78° C | 99% | 1015.2 hPa | 1.78 mm | - | 16 W/m² | - |
| 1777466121 | 17.78° C | 99% | 1015.6 hPa | 1.27 mm | - | 20 W/m² | - |
| 1777465819 | 17.78° C | 99% | 1014.9 hPa | 1.27 mm | - | 31 W/m² | - |
| 1777465514 | 17.78° C | 99% | 1015.2 hPa | 0 mm | - | 24 W/m² | - |
| 1777465209 | 17.78° C | 99% | 1014.6 hPa | 0 mm | - | 22 W/m² | - |
| 1777464903 | 17.78° C | 99% | 1014.3 hPa | 3.05 mm | - | 10 W/m² | - |
| 1777464599 | 17.78° C | 99% | 1014.7 hPa | 3.05 mm | - | 5 W/m² | - |
| 1777464295 | 17.78° C | 99% | 1015.5 hPa | 0.51 mm | - | 2 W/m² | - |
| 1777463991 | 17.78° C | 99% | 1014.9 hPa | 0.51 mm | - | 5 W/m² | - |
| 1777463686 | 17.78° C | 99% | 1014.3 hPa | 0 mm | - | 12 W/m² | - |
| 1777463381 | 17.78° C | 99% | 1014.1 hPa | 0.51 mm | - | 13 W/m² | - |
| 1777463078 | 17.78° C | 99% | 1013.8 hPa | 0 mm | - | 5 W/m² | - |
* Rain latest hour (hover to see other rain measurements)
** Current wind speed in m/s (hover to see current wind gust speed)